Time,TemperatureF,DewpointF,PressureIn,WindDirection,WindDirectionDegrees,WindSpeedMPH,WindSpeedGustMPH,Humidity,HourlyPrecipIn,Conditions,Clouds,dailyrainin,SolarRadiationWatts/m^2,SoftwareType,DateUTC
2013-04-13 00:04:00,35.4,29.5,29.83,WSW,255,10.0,11.0,79,0.00,,,0.04,0,Wunderground v.1.15,2013-04-13 05:04:00,
2013-04-13 00:09:00,35.3,29.1,29.83,WSW,241,10.0,14.0,78,0.00,,,0.04,0,Wunderground v.1.15,2013-04-13 05:09:00,
2013-04-13 00:14:00,35.3,29.1,29.84,WSW,255,9.0,11.0,78,0.00,,,0.04,0,Wunderground v.1.15,2013-04-13 05:14:00,
2013-04-13 00:20:00,35.3,29.1,29.84,WSW,252,9.0,9.0,78,0.00,,,0.00,0,Wunderground v.1.15,2013-04-13 05:20:00,
2013-04-13 00:25:00,35.3,29.1,29.84,SW,236,8.0,9.0,78,0.00,,,0.00,0,Wunderground v.1.15,2013-04-13 05:25:00,
2013-04-13 00:30:00,35.2,29.0,29.84,WSW,237,8.0,9.0,78,0.00,,,0.00,0,Wunderground v.1.15,2013-04-13 05:30:00,
2013-04-13 00:36:00,35.2,29.0,29.84,WSW,238,8.0,12.0,78,0.00,,,0.00,0,Wunderground v.1.15,2013-04-13 05:36:00,
2013-04-13 00:41:00,35.2,29.3,29.84,WSW,248,8.0,9.0,79,0.00,,,0.00,0,Wunderground v.1.15,2013-04-13 05:41:00,
2013-04-13 00:46:00,35.2,29.3,29.83,SW,233,8.0,10.0,79,0.00,,,0.00,0,Wunderground v.1.15,2013-04-13 05:46:00,
2013-04-13 00:52:00,35.1,29.2,29.83,West,263,8.0,8.0,79,0.00,,,0.00,0,Wunderground v.1.15,2013-04-13 05:52:00,
2013-04-13 00:59:00,35.2,30.0,29.83,WSW,248,8.0,9.0,81,0.00,,,0.00,0,Wunderground v.1.15,2013-04-13 05:59:00,
2013-04-13 01:04:00,35.0,29.5,29.83,SW,236,8.0,9.0,80,0.00,,,0.00,0,Wunderground v.1.15,2013-04-13 06:04:00,
2013-04-13 01:09:00,35.0,29.5,29.83,WSW,239,9.0,13.0,80,0.00,,,0.00,0,Wunderground v.1.15,2013-04-13 06:09:00,
2013-04-13 01:15:00,35.0,29.5,29.83,WSW,248,9.0,11.0,80,0.00,,,0.00,0,Wunderground v.1.15,2013-04-13 06:15:00,
2013-04-13 01:21:00,34.9,29.4,29.83,WSW,250,9.0,9.0,80,0.00,,,0.00,0,Wunderground v.1.15,2013-04-13 06:21:00,
2013-04-13 01:26:00,34.9,29.4,29.83,WSW,250,9.0,12.0,80,0.00,,,0.00,0,Wunderground v.1.15,2013-04-13 06:26:00,
2013-04-13 01:34:00,34.9,29.4,29.83,WSW,243,9.0,10.0,80,0.00,,,0.00,0,Wunderground v.1.15,2013-04-13 06:34:00,
2013-04-13 01:39:00,34.8,29.6,29.83,WSW,248,9.0,10.0,81,0.00,,,0.00,0,Wunderground v.1.15,2013-04-13 06:39:00,
2013-04-13 01:44:00,34.8,29.3,29.84,SW,230,10.0,12.0,80,0.00,,,0.00,0,Wunderground v.1.15,2013-04-13 06:44:00,
2013-04-13 01:50:00,34.9,29.4,29.84,WSW,246,11.0,12.0,80,0.00,,,0.00,0,Wunderground v.1.15,2013-04-13 06:50:00,
2013-04-13 01:55:00,34.9,29.7,29.84,WSW,239,10.0,12.0,81,0.00,,,0.00,0,Wunderground v.1.15,2013-04-13 06:55:00,
2013-04-13 02:02:00,34.8,29.3,29.83,WSW,254,11.0,11.0,80,0.00,,,0.00,0,Wunderground v.1.15,2013-04-13 07:02:00,
2013-04-13 02:09:00,34.7,29.2,29.83,WSW,250,12.0,12.0,80,0.00,,,0.00,0,Wunderground v.1.15,2013-04-13 07:09:00,
2013-04-13 02:14:00,34.7,29.5,29.83,WSW,246,12.0,16.0,81,0.00,,,0.00,0,Wunderground v.1.15,2013-04-13 07:14:00,
2013-04-13 02:20:00,34.8,29.6,29.83,WSW,248,11.0,11.0,81,0.00,,,0.00,0,Wunderground v.1.15,2013-04-13 07:20:00,
2013-04-13 02:25:00,34.8,29.6,29.83,SW,225,10.0,11.0,81,0.00,,,0.00,0,Wunderground v.1.15,2013-04-13 07:25:00,
2013-04-13 02:31:00,34.7,29.5,29.83,WSW,240,10.0,11.0,81,0.00,,,0.00,0,Wunderground v.1.15,2013-04-13 07:31:00,
2013-04-13 02:36:00,34.7,29.8,29.83,SW,230,11.0,11.0,82,0.00,,,0.00,0,Wunderground v.1.15,2013-04-13 07:36:00,
2013-04-13 02:42:00,34.6,29.1,29.83,WSW,242,12.0,13.0,80,0.00,,,0.00,0,Wunderground v.1.15,2013-04-13 07:42:00,
2013-04-13 02:49:00,34.5,29.3,29.83,WSW,240,13.0,14.0,81,0.00,,,0.00,0,Wunderground v.1.15,2013-04-13 07:49:00,
2013-04-13 02:54:00,34.6,29.4,29.83,WSW,246,13.0,13.0,81,0.00,,,0.00,0,Wunderground v.1.15,2013-04-13 07:54:00,
2013-04-13 03:00:00,34.6,29.4,29.83,SW,232,12.0,13.0,81,0.00,,,0.00,0,Wunderground v.1.15,2013-04-13 08:00:00,
2013-04-13 03:05:00,34.5,29.3,29.83,SW,235,12.0,13.0,81,0.00,,,0.00,0,Wunderground v.1.15,2013-04-13 08:05:00,
2013-04-13 03:11:00,34.5,29.0,29.83,WSW,247,11.0,13.0,80,0.00,,,0.00,0,Wunderground v.1.15,2013-04-13 08:11:00,
2013-04-13 03:17:00,34.5,29.3,29.83,WSW,240,11.0,14.0,81,0.00,,,0.00,0,Wunderground v.1.15,2013-04-13 08:17:00,
2013-04-13 03:24:00,34.4,29.2,29.83,West,271,12.0,12.0,81,0.00,,,0.00,0,Wunderground v.1.15,2013-04-13 08:24:00,
2013-04-13 03:30:00,34.5,29.0,29.83,WSW,252,12.0,13.0,80,0.00,,,0.00,0,Wunderground v.1.15,2013-04-13 08:30:00,
2013-04-13 03:35:00,34.5,29.6,29.83,WSW,238,12.0,13.0,82,0.00,,,0.00,0,Wunderground v.1.15,2013-04-13 08:35:00,
2013-04-13 03:40:00,34.4,29.2,29.83,SW,221,12.0,12.0,81,0.00,,,0.00,0,Wunderground v.1.15,2013-04-13 08:40:00,
2013-04-13 03:46:00,34.3,29.1,29.82,WSW,237,11.0,12.0,81,0.00,,,0.00,0,Wunderground v.1.15,2013-04-13 08:46:00,
2013-04-13 03:51:00,34.4,29.2,29.82,WSW,237,11.0,11.0,81,0.00,,,0.00,0,Wunderground v.1.15,2013-04-13 08:51:00,
2013-04-13 03:59:00,34.3,29.1,29.82,WSW,247,11.0,15.0,81,0.00,,,0.00,0,Wunderground v.1.15,2013-04-13 08:59:00,
2013-04-13 04:04:00,34.3,29.1,29.82,West,264,12.0,12.0,81,0.00,,,0.00,0,Wunderground v.1.15,2013-04-13 09:04:00,
2013-04-13 04:09:00,34.3,29.1,29.82,WSW,249,11.0,13.0,81,0.00,,,0.00,0,Wunderground v.1.15,2013-04-13 09:09:00,
2013-04-13 04:14:00,34.3,29.4,29.82,SW,234,11.0,11.0,82,0.00,,,0.00,0,Wunderground v.1.15,2013-04-13 09:14:00,
2013-04-13 04:19:00,34.3,29.1,29.82,WSW,246,11.0,14.0,81,0.00,,,0.00,0,Wunderground v.1.15,2013-04-13 09:19:00,
2013-04-13 04:25:00,34.3,29.1,29.82,WSW,246,11.0,13.0,81,0.00,,,0.00,0,Wunderground v.1.15,2013-04-13 09:25:00,
2013-04-13 04:30:00,34.2,29.0,29.82,SW,229,11.0,12.0,81,0.00,,,0.00,0,Wunderground v.1.15,2013-04-13 09:30:00,
2013-04-13 04:36:00,34.2,29.0,29.82,WSW,250,12.0,15.0,81,0.00,,,0.00,0,Wunderground v.1.15,2013-04-13 09:36:00,
2013-04-13 04:42:00,34.1,29.2,29.82,WSW,237,11.0,12.0,82,0.00,,,0.00,0,Wunderground v.1.15,2013-04-13 09:42:00,
2013-04-13 04:49:00,34.1,29.2,29.82,WSW,241,11.0,12.0,82,0.00,,,0.00,0,Wunderground v.1.15,2013-04-13 09:49:00,
2013-04-13 04:54:00,34.0,29.1,29.82,WSW,239,11.0,15.0,82,0.00,,,0.00,0,Wunderground v.1.15,2013-04-13 09:54:00,
2013-04-13 05:00:00,34.1,29.2,29.82,WSW,248,12.0,12.0,82,0.00,,,0.00,0,Wunderground v.1.15,2013-04-13 10:00:00,
2013-04-13 05:05:00,34.0,28.8,29.82,WSW,253,11.0,14.0,81,0.00,,,0.00,0,Wunderground v.1.15,2013-04-13 10:05:00,
2013-04-13 05:11:00,34.0,29.1,29.82,WSW,246,12.0,14.0,82,0.00,,,0.00,0,Wunderground v.1.15,2013-04-13 10:11:00,
2013-04-13 05:16:00,34.1,29.2,29.83,SW,225,12.0,17.0,82,0.00,,,0.00,0,Wunderground v.1.15,2013-04-13 10:16:00,
2013-04-13 05:24:00,34.0,28.8,29.83,WSW,240,12.0,12.0,81,0.00,,,0.00,0,Wunderground v.1.15,2013-04-13 10:24:00,
2013-04-13 05:29:00,34.0,29.1,29.83,WSW,247,12.0,13.0,82,0.00,,,0.00,0,Wunderground v.1.15,2013-04-13 10:29:00,
2013-04-13 05:34:00,33.9,28.4,29.83,SW,226,12.0,15.0,80,0.00,,,0.00,0,Wunderground v.1.15,2013-04-13 10:34:00,
2013-04-13 05:42:00,33.9,28.4,29.83,WSW,239,13.0,14.0,80,0.00,,,0.00,0,Wunderground v.1.15,2013-04-13 10:42:00,
2013-04-13 05:49:00,34.0,29.1,29.83,WSW,238,12.0,14.0,82,0.00,,,0.00,0,Wunderground v.1.15,2013-04-13 10:49:00,
2013-04-13 05:54:00,33.8,28.3,29.83,WSW,258,12.0,16.0,80,0.00,,,0.00,0,Wunderground v.1.15,2013-04-13 10:54:00,
2013-04-13 06:00:00,33.7,28.5,29.83,WSW,241,13.0,13.0,81,0.00,,,0.00,0,Wunderground v.1.15,2013-04-13 11:00:00,
2013-04-13 06:05:00,33.9,28.7,29.83,WSW,251,12.0,13.0,81,0.00,,,0.00,0,Wunderground v.1.15,2013-04-13 11:05:00,
2013-04-13 06:11:00,33.7,28.5,29.83,SW,234,12.0,12.0,81,0.00,,,0.00,0,Wunderground v.1.15,2013-04-13 11:11:00,
2013-04-13 06:17:00,33.7,28.5,29.83,WSW,250,13.0,17.0,81,0.00,,,0.00,0,Wunderground v.1.15,2013-04-13 11:17:00,
2013-04-13 06:22:00,33.6,28.7,29.83,WSW,250,14.0,14.0,82,0.00,,,0.00,0,Wunderground v.1.15,2013-04-13 11:22:00,
2013-04-13 06:29:00,33.5,28.6,29.83,WSW,246,13.0,16.0,82,0.00,,,0.00,0,Wunderground v.1.15,2013-04-13 11:29:00,
2013-04-13 06:35:00,33.6,29.0,29.83,WSW,252,12.0,15.0,83,0.00,,,0.00,0,Wunderground v.1.15,2013-04-13 11:35:00,
2013-04-13 06:42:00,33.4,28.5,29.83,WSW,253,13.0,16.0,82,0.00,,,0.00,7,Wunderground v.1.15,2013-04-13 11:42:00,
2013-04-13 06:49:00,33.4,28.8,29.83,WSW,248,14.0,18.0,83,0.00,,,0.00,16,Wunderground v.1.15,2013-04-13 11:49:00,
2013-04-13 06:54:00,33.4,28.8,29.83,WSW,239,15.0,18.0,83,0.00,,,0.00,23,Wunderground v.1.15,2013-04-13 11:54:00,
2013-04-13 07:00:00,33.4,28.5,29.84,WSW,246,14.0,14.0,82,0.00,,,0.00,30,Wunderground v.1.15,2013-04-13 12:00:00,
2013-04-13 07:06:00,33.4,28.8,29.84,SW,230,12.0,14.0,83,0.00,,,0.00,42,Wunderground v.1.15,2013-04-13 12:06:00,
2013-04-13 07:11:00,33.5,28.9,29.84,SW,234,13.0,13.0,83,0.00,,,0.00,46,Wunderground v.1.15,2013-04-13 12:11:00,
2013-04-13 07:19:00,33.4,28.8,29.84,WSW,242,14.0,14.0,83,0.00,,,0.00,46,Wunderground v.1.15,2013-04-13 12:19:00,
2013-04-13 07:24:00,33.5,28.9,29.84,SW,236,15.0,16.0,83,0.00,,,0.00,37,Wunderground v.1.15,2013-04-13 12:24:00,
2013-04-13 07:30:00,33.4,28.8,29.85,SW,233,15.0,17.0,83,0.00,,,0.00,42,Wunderground v.1.15,2013-04-13 12:30:00,
2013-04-13 07:35:00,33.3,28.7,29.85,WSW,242,14.0,17.0,83,0.00,,,0.00,47,Wunderground v.1.15,2013-04-13 12:35:00,
2013-04-13 07:42:00,33.6,29.3,29.85,WSW,251,13.0,14.0,84,0.00,,,0.00,51,Wunderground v.1.15,2013-04-13 12:42:00,
2013-04-13 07:49:00,33.5,28.9,29.85,WSW,257,12.0,14.0,83,0.00,,,0.00,67,Wunderground v.1.15,2013-04-13 12:49:00,
2013-04-13 07:54:00,33.5,28.9,29.85,WSW,242,13.0,14.0,83,0.00,,,0.00,54,Wunderground v.1.15,2013-04-13 12:54:00,
2013-04-13 08:00:00,33.6,29.0,29.86,WSW,244,14.0,14.0,83,0.00,,,0.00,42,Wunderground v.1.15,2013-04-13 13:00:00,
2013-04-13 08:06:00,33.6,29.0,29.86,SW,234,12.0,16.0,83,0.00,,,0.00,49,Wunderground v.1.15,2013-04-13 13:06:00,
2013-04-13 08:11:00,33.5,28.6,29.86,WSW,238,12.0,13.0,82,0.00,,,0.00,46,Wunderground v.1.15,2013-04-13 13:11:00,
2013-04-13 08:17:00,33.6,28.7,29.87,SW,235,13.0,21.0,82,0.00,,,0.00,54,Wunderground v.1.15,2013-04-13 13:17:00,
2013-04-13 08:22:00,33.7,28.8,29.87,West,266,13.0,14.0,82,0.00,,,0.00,86,Wunderground v.1.15,2013-04-13 13:22:00,
2013-04-13 08:27:00,33.8,28.9,29.87,WSW,242,12.0,14.0,82,0.00,,,0.00,90,Wunderground v.1.15,2013-04-13 13:27:00,
2013-04-13 08:34:00,33.8,28.6,29.87,West,261,11.0,12.0,81,0.00,,,0.00,88,Wunderground v.1.15,2013-04-13 13:34:00,
2013-04-13 08:40:00,33.9,28.7,29.87,WSW,254,12.0,14.0,81,0.00,,,0.00,56,Wunderground v.1.15,2013-04-13 13:40:00,
2013-04-13 08:45:00,34.1,29.2,29.87,WSW,237,13.0,15.0,82,0.00,,,0.00,156,Wunderground v.1.15,2013-04-13 13:45:00,
2013-04-13 08:52:00,34.1,28.6,29.87,WSW,255,13.0,13.0,80,0.00,,,0.00,132,Wunderground v.1.15,2013-04-13 13:52:00,
2013-04-13 08:59:00,34.1,28.6,29.87,WSW,255,13.0,20.0,80,0.00,,,0.00,90,Wunderground v.1.15,2013-04-13 13:59:00,
2013-04-13 09:04:00,34.2,28.7,29.87,WSW,252,13.0,13.0,80,0.00,,,0.00,44,Wunderground v.1.15,2013-04-13 14:04:00,
2013-04-13 09:09:00,34.2,28.7,29.87,WSW,254,11.0,16.0,80,0.00,,,0.00,62,Wunderground v.1.15,2013-04-13 14:09:00,
2013-04-13 09:14:00,34.2,28.7,29.87,West,259,12.0,14.0,80,0.00,,,0.00,98,Wunderground v.1.15,2013-04-13 14:14:00,
2013-04-13 09:20:00,34.4,28.6,29.87,West,262,13.0,13.0,79,0.00,,,0.00,265,Wunderground v.1.15,2013-04-13 14:20:00,
2013-04-13 09:27:00,34.9,28.7,29.87,WSW,248,12.0,18.0,78,0.00,,,0.00,179,Wunderground v.1.15,2013-04-13 14:27:00,
2013-04-13 09:34:00,35.0,28.2,29.87,West,275,13.0,18.0,76,0.00,,,0.00,178,Wunderground v.1.15,2013-04-13 14:34:00,
2013-04-13 09:40:00,34.9,27.1,29.87,WSW,256,15.0,15.0,73,0.00,,,0.00,144,Wunderground v.1.15,2013-04-13 14:40:00,
2013-04-13 09:45:00,35.0,27.2,29.87,West,281,15.0,16.0,73,0.00,,,0.00,192,Wunderground v.1.15,2013-04-13 14:45:00,
2013-04-13 09:51:00,35.0,26.9,29.87,West,279,14.0,15.0,72,0.00,,,0.00,107,Wunderground v.1.15,2013-04-13 14:51:00,
2013-04-13 09:56:00,35.2,28.1,29.87,WNW,293,12.0,15.0,75,0.00,,,0.00,70,Wunderground v.1.15,2013-04-13 14:56:00,
2013-04-13 10:02:00,34.9,27.1,29.88,WNW,287,12.0,12.0,73,0.00,,,0.00,76,Wunderground v.1.15,2013-04-13 15:02:00,
2013-04-13 10:09:00,34.8,27.7,29.88,West,273,13.0,18.0,75,0.00,,,0.00,334,Wunderground v.1.15,2013-04-13 15:09:00,
2013-04-13 10:14:00,35.0,27.9,29.89,WSW,252,11.0,13.0,75,0.00,,,0.00,311,Wunderground v.1.15,2013-04-13 15:14:00,
2013-04-13 10:20:00,35.4,27.9,29.89,West,270,10.0,10.0,74,0.00,,,0.00,359,Wunderground v.1.15,2013-04-13 15:20:00,
2013-04-13 10:25:00,35.6,27.5,29.89,WNW,295,11.0,14.0,72,0.00,,,0.00,225,Wunderground v.1.15,2013-04-13 15:25:00,
2013-04-13 10:34:00,35.9,27.7,29.89,WNW,298,11.0,13.0,72,0.00,,,0.00,267,Wunderground v.1.15,2013-04-13 15:34:00,
2013-04-13 10:40:00,36.3,27.4,29.89,West,269,10.0,12.0,70,0.00,,,0.00,111,Wunderground v.1.15,2013-04-13 15:40:00,
2013-04-13 10:45:00,36.2,26.3,29.89,WSW,256,11.0,13.0,67,0.00,,,0.00,279,Wunderground v.1.15,2013-04-13 15:45:00,
2013-04-13 10:50:00,36.5,27.3,29.89,WSW,242,11.0,14.0,69,0.00,,,0.00,390,Wunderground v.1.15,2013-04-13 15:50:00,
2013-04-13 10:59:00,36.4,25.7,29.90,WSW,254,14.0,15.0,65,0.00,,,0.00,169,Wunderground v.1.15,2013-04-13 15:59:00,
2013-04-13 11:05:00,36.2,25.6,29.90,WNW,287,14.0,16.0,65,0.00,,,0.00,246,Wunderground v.1.15,2013-04-13 16:05:00,
2013-04-13 11:10:00,36.5,25.5,29.90,West,275,14.0,15.0,64,0.00,,,0.00,316,Wunderground v.1.15,2013-04-13 16:10:00,
2013-04-13 11:15:00,36.6,24.4,29.90,West,277,15.0,18.0,61,0.00,,,0.00,156,Wunderground v.1.15,2013-04-13 16:15:00,
2013-04-13 11:21:00,36.7,24.9,29.90,West,278,15.0,18.0,62,0.00,,,0.00,221,Wunderground v.1.15,2013-04-13 16:21:00,
2013-04-13 11:29:00,36.5,25.1,29.91,WNW,296,14.0,18.0,63,0.00,,,0.00,214,Wunderground v.1.15,2013-04-13 16:29:00,
2013-04-13 11:35:00,36.6,25.2,29.91,West,268,12.0,14.0,63,0.00,,,0.00,469,Wunderground v.1.15,2013-04-13 16:35:00,
2013-04-13 11:40:00,36.8,25.0,29.91,WNW,290,12.0,14.0,62,0.00,,,0.00,438,Wunderground v.1.15,2013-04-13 16:40:00,
2013-04-13 11:45:00,36.8,25.4,29.91,West,274,13.0,17.0,63,0.00,,,0.00,183,Wunderground v.1.15,2013-04-13 16:45:00,
2013-04-13 11:54:00,36.6,25.2,29.91,WNW,290,13.0,16.0,63,0.00,,,0.00,181,Wunderground v.1.15,2013-04-13 16:54:00,
2013-04-13 12:25:00,36.9,25.1,29.91,WSW,255,14.0,14.0,62,0.00,,,0.00,221,Wunderground v.1.15,2013-04-13 17:25:00,
2013-04-13 12:30:00,37.2,25.8,29.92,West,271,12.0,14.0,63,0.00,,,0.00,260,Wunderground v.1.15,2013-04-13 17:30:00,
2013-04-13 12:36:00,37.1,25.7,29.92,SW,234,12.0,12.0,63,0.00,,,0.00,97,Wunderground v.1.15,2013-04-13 17:36:00,
2013-04-13 12:41:00,37.0,25.6,29.92,WSW,252,12.0,12.0,63,0.00,,,0.00,183,Wunderground v.1.15,2013-04-13 17:41:00,
2013-04-13 12:49:00,36.9,25.5,29.92,West,277,15.0,18.0,63,0.00,,,0.00,206,Wunderground v.1.15,2013-04-13 17:49:00,
2013-04-13 12:54:00,36.9,25.9,29.92,WSW,254,15.0,18.0,64,0.00,,,0.00,179,Wunderground v.1.15,2013-04-13 17:54:00,
2013-04-13 13:00:00,37.1,27.2,29.92,West,273,13.0,13.0,67,0.00,,,0.00,297,Wunderground v.1.15,2013-04-13 18:00:00,
2013-04-13 13:05:00,37.1,25.3,29.92,West,262,13.0,17.0,62,0.00,,,0.00,512,Wunderground v.1.15,2013-04-13 18:05:00,
2013-04-13 13:11:00,37.6,25.0,29.92,West,271,13.0,14.0,60,0.00,,,0.00,392,Wunderground v.1.15,2013-04-13 18:11:00,
2013-04-13 13:19:00,37.7,26.2,29.92,WSW,258,15.0,18.0,63,0.00,,,0.00,306,Wunderground v.1.15,2013-04-13 18:19:00,
2013-04-13 13:24:00,37.5,25.7,29.92,WSW,257,16.0,18.0,62,0.00,,,0.00,204,Wunderground v.1.15,2013-04-13 18:24:00,
2013-04-13 13:29:00,37.2,25.8,29.93,WSW,253,16.0,18.0,63,0.00,,,0.00,107,Wunderground v.1.15,2013-04-13 18:29:00,
2013-04-13 13:30:00,37.2,26.1,29.93,West,275,16.0,18.0,64,0.00,,,0.00,97,Wunderground v.1.15,2013-04-13 18:30:00,
2013-04-13 13:55:00,36.9,27.0,29.93,WSW,245,13.0,13.0,67,0.00,,,0.00,98,Wunderground v.1.15,2013-04-13 18:55:00,
2013-04-13 14:01:00,37.0,27.8,29.94,West,268,11.0,12.0,69,0.00,,,0.00,165,Wunderground v.1.15,2013-04-13 19:01:00,
2013-04-13 14:05:00,37.0,27.1,29.94,WSW,237,12.0,21.0,67,0.00,,,0.00,257,Wunderground v.1.15,2013-04-13 19:05:00,
2013-04-13 14:10:00,37.2,26.9,29.94,West,268,13.0,15.0,66,0.00,,,0.00,179,Wunderground v.1.15,2013-04-13 19:10:00,
2013-04-13 14:16:00,37.4,26.7,29.94,WSW,254,12.0,16.0,65,0.00,,,0.00,105,Wunderground v.1.15,2013-04-13 19:16:00,
2013-04-13 14:22:00,37.2,26.9,29.94,WSW,246,13.0,21.0,66,0.00,,,0.00,137,Wunderground v.1.15,2013-04-13 19:22:00,
2013-04-13 14:29:00,37.3,26.6,29.94,West,271,15.0,21.0,65,0.00,,,0.00,178,Wunderground v.1.15,2013-04-13 19:29:00,
2013-04-13 14:34:00,37.4,27.1,29.94,WSW,246,15.0,17.0,66,0.00,,,0.00,146,Wunderground v.1.15,2013-04-13 19:34:00,
2013-04-13 14:39:00,37.3,26.6,29.94,WSW,254,16.0,20.0,65,0.00,,,0.00,165,Wunderground v.1.15,2013-04-13 19:39:00,
2013-04-13 14:44:00,37.3,27.0,29.94,WSW,247,16.0,17.0,66,0.00,,,0.00,146,Wunderground v.1.15,2013-04-13 19:44:00,
2013-04-13 14:49:00,37.4,26.7,29.94,West,265,14.0,17.0,65,0.00,,,0.00,107,Wunderground v.1.15,2013-04-13 19:49:00,
2013-04-13 14:55:00,37.2,26.1,29.94,SW,233,14.0,22.0,64,0.00,,,0.00,155,Wunderground v.1.15,2013-04-13 19:55:00,
2013-04-13 15:00:00,37.1,26.8,29.94,WSW,245,15.0,15.0,66,0.00,,,0.00,165,Wunderground v.1.15,2013-04-13 20:00:00,
2013-04-13 15:07:00,37.2,26.9,29.94,WSW,244,14.0,15.0,66,0.00,,,0.00,113,Wunderground v.1.15,2013-04-13 20:07:00,
2013-04-13 15:14:00,37.0,27.1,29.95,SW,232,13.0,16.0,67,0.00,,,0.00,114,Wunderground v.1.15,2013-04-13 20:14:00,
2013-04-13 15:19:00,37.0,27.4,29.95,WSW,245,14.0,16.0,68,0.00,,,0.00,111,Wunderground v.1.15,2013-04-13 20:19:00,
2013-04-13 15:25:00,37.0,27.4,29.95,West,279,14.0,15.0,68,0.00,,,0.00,162,Wunderground v.1.15,2013-04-13 20:25:00,
2013-04-13 15:30:00,37.0,27.4,29.94,West,277,14.0,14.0,68,0.00,,,0.00,290,Wunderground v.1.15,2013-04-13 20:30:00,
2013-04-13 15:36:00,37.0,27.4,29.94,WNW,282,12.0,14.0,68,0.00,,,0.00,304,Wunderground v.1.15,2013-04-13 20:36:00,
2013-04-13 15:41:00,37.4,26.7,29.94,West,264,12.0,12.0,65,0.00,,,0.00,202,Wunderground v.1.15,2013-04-13 20:41:00,
2013-04-13 15:46:00,37.4,26.7,29.94,WSW,256,14.0,17.0,65,0.00,,,0.00,169,Wunderground v.1.15,2013-04-13 20:46:00,
2013-04-13 15:54:00,37.4,26.7,29.94,WSW,241,13.0,15.0,65,0.00,,,0.00,206,Wunderground v.1.15,2013-04-13 20:54:00,
2013-04-13 15:59:00,37.3,27.0,29.94,WSW,249,13.0,16.0,66,0.00,,,0.00,141,Wunderground v.1.15,2013-04-13 20:59:00,
2013-04-13 16:05:00,37.4,27.4,29.94,West,277,12.0,15.0,67,0.00,,,0.00,81,Wunderground v.1.15,2013-04-13 21:05:00,
2013-04-13 16:10:00,37.4,26.7,29.94,WSW,238,11.0,12.0,65,0.00,,,0.00,74,Wunderground v.1.15,2013-04-13 21:10:00,
2013-04-13 16:15:00,37.4,27.4,29.94,West,276,11.0,13.0,67,0.00,,,0.00,109,Wunderground v.1.15,2013-04-13 21:15:00,
2013-04-13 16:20:00,37.4,27.8,29.94,SW,229,11.0,11.0,68,0.00,,,0.00,139,Wunderground v.1.15,2013-04-13 21:20:00,
2013-04-13 16:26:00,37.5,27.5,29.94,WSW,252,10.0,13.0,67,0.00,,,0.00,158,Wunderground v.1.15,2013-04-13 21:26:00,
2013-04-13 16:31:00,37.6,28.3,29.94,WSW,254,11.0,12.0,69,0.00,,,0.00,153,Wunderground v.1.15,2013-04-13 21:31:00,
2013-04-13 16:39:00,37.6,27.6,29.94,WSW,250,11.0,12.0,67,0.00,,,0.00,158,Wunderground v.1.15,2013-04-13 21:39:00,
2013-04-13 16:45:00,37.7,27.7,29.94,WSW,241,10.0,11.0,67,0.00,,,0.00,134,Wunderground v.1.15,2013-04-13 21:45:00,
2013-04-13 16:51:00,37.7,27.7,29.94,WSW,256,12.0,17.0,67,0.00,,,0.00,107,Wunderground v.1.15,2013-04-13 21:51:00,
2013-04-13 16:56:00,37.7,27.4,29.94,West,279,14.0,17.0,66,0.00,,,0.00,125,Wunderground v.1.15,2013-04-13 21:56:00,
2013-04-13 17:01:00,37.7,27.0,29.95,WSW,255,13.0,13.0,65,0.00,,,0.00,128,Wunderground v.1.15,2013-04-13 22:01:00,
2013-04-13 17:07:00,37.7,27.4,29.95,WSW,252,11.0,13.0,66,0.00,,,0.00,134,Wunderground v.1.15,2013-04-13 22:07:00,
2013-04-13 17:14:00,37.9,27.9,29.95,WSW,252,11.0,13.0,67,0.00,,,0.00,169,Wunderground v.1.15,2013-04-13 22:14:00,
2013-04-13 17:20:00,37.8,27.5,29.95,SW,236,12.0,12.0,66,0.00,,,0.00,176,Wunderground v.1.15,2013-04-13 22:20:00,
2013-04-13 17:25:00,38.0,27.6,29.95,WSW,257,10.0,13.0,66,0.00,,,0.00,156,Wunderground v.1.15,2013-04-13 22:25:00,
2013-04-13 17:30:00,37.9,27.5,29.95,WSW,254,9.0,9.0,66,0.00,,,0.00,167,Wunderground v.1.15,2013-04-13 22:30:00,
2013-04-13 17:35:00,38.1,27.4,29.95,WSW,250,9.0,10.0,65,0.00,,,0.00,123,Wunderground v.1.15,2013-04-13 22:35:00,
2013-04-13 17:40:00,38.1,27.0,29.95,WSW,253,10.0,10.0,64,0.00,,,0.00,100,Wunderground v.1.15,2013-04-13 22:40:00,
2013-04-13 17:46:00,38.0,26.5,29.95,West,268,12.0,19.0,63,0.00,,,0.00,107,Wunderground v.1.15,2013-04-13 22:46:00,
2013-04-13 17:51:00,38.1,27.4,29.95,West,275,12.0,12.0,65,0.00,,,0.00,114,Wunderground v.1.15,2013-04-13 22:51:00,
2013-04-13 17:59:00,38.2,27.5,29.95,WNW,284,10.0,12.0,65,0.00,,,0.00,109,Wunderground v.1.15,2013-04-13 22:59:00,
2013-04-13 18:05:00,38.1,27.0,29.95,WSW,253,11.0,12.0,64,0.00,,,0.00,86,Wunderground v.1.15,2013-04-13 23:05:00,
2013-04-13 18:10:00,38.1,27.0,29.95,WSW,254,12.0,12.0,64,0.00,,,0.00,76,Wunderground v.1.15,2013-04-13 23:10:00,
2013-04-13 18:16:00,38.1,27.0,29.96,WSW,252,11.0,13.0,64,0.00,,,0.00,93,Wunderground v.1.15,2013-04-13 23:16:00,
2013-04-13 18:21:00,38.2,27.1,29.96,WSW,250,9.0,10.0,64,0.00,,,0.00,81,Wunderground v.1.15,2013-04-13 23:21:00,
2013-04-13 18:26:00,38.2,26.7,29.96,West,259,9.0,11.0,63,0.00,,,0.00,69,Wunderground v.1.15,2013-04-13 23:26:00,
2013-04-13 18:34:00,38.1,26.6,29.96,West,261,10.0,13.0,63,0.00,,,0.00,63,Wunderground v.1.15,2013-04-13 23:34:00,
2013-04-13 18:40:00,38.1,27.0,29.96,West,276,9.0,10.0,64,0.00,,,0.00,51,Wunderground v.1.15,2013-04-13 23:40:00,
2013-04-13 18:46:00,38.1,27.0,29.96,WNW,283,9.0,10.0,64,0.00,,,0.00,40,Wunderground v.1.15,2013-04-13 23:46:00,
2013-04-13 18:54:00,38.1,27.7,29.96,West,273,8.0,9.0,66,0.00,,,0.00,42,Wunderground v.1.15,2013-04-13 23:54:00,
2013-04-13 18:59:00,38.0,27.3,29.96,WSW,254,6.0,9.0,65,0.00,,,0.00,33,Wunderground v.1.15,2013-04-13 23:59:00,
2013-04-13 19:04:00,38.0,27.3,29.96,WSW,248,7.0,9.0,65,0.00,,,0.00,26,Wunderground v.1.15,2013-04-14 00:04:00,
2013-04-13 19:10:00,38.0,26.9,29.96,West,263,8.0,8.0,64,0.00,,,0.00,16,Wunderground v.1.15,2013-04-14 00:10:00,
2013-04-13 19:16:00,38.0,27.3,29.97,West,259,8.0,9.0,65,0.00,,,0.00,11,Wunderground v.1.15,2013-04-14 00:16:00,
2013-04-13 19:21:00,38.0,27.3,29.97,West,270,7.0,8.0,65,0.00,,,0.00,5,Wunderground v.1.15,2013-04-14 00:21:00,
2013-04-13 19:26:00,37.9,27.2,29.97,WSW,248,7.0,9.0,65,0.00,,,0.00,0,Wunderground v.1.15,2013-04-14 00:26:00,
2013-04-13 19:31:00,37.9,27.2,29.97,West,269,7.0,9.0,65,0.00,,,0.00,0,Wunderground v.1.15,2013-04-14 00:31:00,
2013-04-13 19:36:00,37.9,27.5,29.97,West,267,6.0,9.0,66,0.00,,,0.00,0,Wunderground v.1.15,2013-04-14 00:36:00,
2013-04-13 19:41:00,37.8,27.5,29.97,WSW,253,6.0,6.0,66,0.00,,,0.00,0,Wunderground v.1.15,2013-04-14 00:41:00,
2013-04-13 19:49:00,37.8,27.1,29.98,West,279,6.0,7.0,65,0.00,,,0.00,0,Wunderground v.1.15,2013-04-14 00:49:00,
2013-04-13 19:54:00,37.8,27.1,29.98,West,276,6.0,6.0,65,0.00,,,0.00,0,Wunderground v.1.15,2013-04-14 00:54:00,
2013-04-13 20:00:00,37.7,27.7,29.98,West,278,5.0,5.0,67,0.00,,,0.00,0,Wunderground v.1.15,2013-04-14 01:00:00,
2013-04-13 20:05:00,37.7,27.4,29.98,West,267,5.0,6.0,66,0.00,,,0.00,0,Wunderground v.1.15,2013-04-14 01:05:00,
2013-04-13 20:11:00,37.7,27.7,29.98,West,262,4.0,5.0,67,0.00,,,0.00,0,Wunderground v.1.15,2013-04-14 01:11:00,
2013-04-13 20:16:00,37.7,28.1,29.99,West,269,4.0,5.0,68,0.00,,,0.00,0,Wunderground v.1.15,2013-04-14 01:16:00,
2013-04-13 20:21:00,37.6,27.6,29.99,West,259,4.0,4.0,67,0.00,,,0.00,0,Wunderground v.1.15,2013-04-14 01:21:00,
2013-04-13 20:29:00,37.5,27.5,29.99,West,271,3.0,4.0,67,0.00,,,0.00,0,Wunderground v.1.15,2013-04-14 01:29:00,
2013-04-13 20:34:00,37.5,27.9,29.99,WNW,284,3.0,4.0,68,0.00,,,0.00,0,Wunderground v.1.15,2013-04-14 01:34:00,
2013-04-13 20:40:00,37.3,27.7,29.99,WNW,284,2.0,2.0,68,0.00,,,0.00,0,Wunderground v.1.15,2013-04-14 01:40:00,
2013-04-13 20:46:00,37.2,28.0,30.00,WNW,284,2.0,3.0,69,0.00,,,0.00,0,Wunderground v.1.15,2013-04-14 01:46:00,
2013-04-13 20:51:00,37.1,27.9,30.00,WNW,284,2.0,2.0,69,0.00,,,0.00,0,Wunderground v.1.15,2013-04-14 01:51:00,
2013-04-13 20:57:00,37.0,28.1,30.00,WNW,284,2.0,2.0,70,0.00,,,0.00,0,Wunderground v.1.15,2013-04-14 01:57:00,
2013-04-13 21:04:00,36.8,27.6,30.00,WNW,284,1.0,1.0,69,0.00,,,0.00,0,Wunderground v.1.15,2013-04-14 02:04:00,
2013-04-13 21:09:00,36.5,27.6,30.00,WNW,284,0.0,2.0,70,0.00,,,0.00,0,Wunderground v.1.15,2013-04-14 02:09:00,
2013-04-13 21:15:00,36.3,27.4,30.00,WNW,284,1.0,2.0,70,0.00,,,0.00,0,Wunderground v.1.15,2013-04-14 02:15:00,
2013-04-13 21:20:00,36.0,27.5,30.00,WNW,284,1.0,1.0,71,0.00,,,0.00,0,Wunderground v.1.15,2013-04-14 02:20:00,
2013-04-13 21:26:00,35.7,27.2,30.00,WNW,284,1.0,2.0,71,0.00,,,0.00,0,Wunderground v.1.15,2013-04-14 02:26:00,
2013-04-13 21:31:00,35.4,26.9,30.00,WNW,284,1.0,1.0,71,0.00,,,0.00,0,Wunderground v.1.15,2013-04-14 02:31:00,
2013-04-13 21:39:00,35.3,27.2,30.00,WNW,284,0.0,1.0,72,0.00,,,0.00,0,Wunderground v.1.15,2013-04-14 02:39:00,
2013-04-13 21:44:00,34.8,28.0,30.00,WNW,284,0.0,0.0,76,0.00,,,0.00,0,Wunderground v.1.15,2013-04-14 02:44:00,
2013-04-13 21:50:00,34.1,28.3,30.00,WNW,284,0.0,0.0,79,0.00,,,0.00,0,Wunderground v.1.15,2013-04-14 02:50:00,
2013-04-13 21:57:00,33.6,27.8,30.00,WNW,284,0.0,0.0,79,0.00,,,0.00,0,Wunderground v.1.15,2013-04-14 02:57:00,
2013-04-13 22:02:00,33.4,27.3,30.00,WNW,284,0.0,0.0,78,0.00,,,0.00,0,Wunderground v.1.15,2013-04-14 03:02:00,
2013-04-13 22:09:00,33.4,26.6,30.00,WNW,284,0.0,0.0,76,0.00,,,0.00,0,Wunderground v.1.15,2013-04-14 03:09:00,
2013-04-13 22:15:00,33.2,26.8,30.01,WNW,284,0.0,0.0,77,0.00,,,0.00,0,Wunderground v.1.15,2013-04-14 03:15:00,
2013-04-13 22:21:00,32.3,26.5,30.01,WNW,284,0.0,0.0,79,0.00,,,0.00,0,Wunderground v.1.15,2013-04-14 03:21:00,
2013-04-13 22:29:00,31.8,26.3,30.02,WNW,284,0.0,0.0,80,0.00,,,0.00,0,Wunderground v.1.15,2013-04-14 03:29:00,
2013-04-13 22:34:00,31.8,26.3,30.02,WNW,284,0.0,0.0,80,0.00,,,0.00,0,Wunderground v.1.15,2013-04-14 03:34:00,
2013-04-13 22:40:00,31.9,27.0,30.02,WNW,284,0.0,0.0,82,0.00,,,0.00,0,Wunderground v.1.15,2013-04-14 03:40:00,
2013-04-13 22:46:00,31.3,26.7,30.02,WNW,284,0.0,0.0,83,0.00,,,0.00,0,Wunderground v.1.15,2013-04-14 03:46:00,
2013-04-13 22:51:00,31.5,27.2,30.02,WNW,284,0.0,0.0,84,0.00,,,0.00,0,Wunderground v.1.15,2013-04-14 03:51:00,
2013-04-13 22:59:00,31.1,26.8,30.02,WNW,284,0.0,0.0,84,0.00,,,0.00,0,Wunderground v.1.15,2013-04-14 03:59:00,
2013-04-13 23:00:00,31.1,26.8,30.02,WNW,284,0.0,0.0,84,0.00,,,0.00,0,Wunderground v.1.15,2013-04-14 04:00:00,
2013-04-13 23:04:00,30.6,26.6,30.02,WNW,284,0.0,0.0,85,0.00,,,0.00,0,Wunderground v.1.15,2013-04-14 04:04:00,
2013-04-13 23:05:00,30.6,26.6,30.02,WNW,284,0.0,0.0,85,0.00,,,0.00,0,Wunderground v.1.15,2013-04-14 04:05:00,
2013-04-13 23:11:00,31.1,26.5,30.02,WNW,284,0.0,0.0,83,0.00,,,0.00,0,Wunderground v.1.15,2013-04-14 04:11:00,
2013-04-13 23:14:00,31.0,26.4,30.02,WNW,284,0.0,0.0,83,0.00,,,0.00,0,Wunderground v.1.15,2013-04-14 04:14:00,
2013-04-13 23:20:00,30.5,26.0,30.02,WNW,284,0.0,0.0,83,0.00,,,0.00,0,Wunderground v.1.15,2013-04-14 04:20:00,
2013-04-13 23:25:00,30.0,26.0,30.02,WNW,284,0.0,0.0,85,0.00,,,0.00,0,Wunderground v.1.15,2013-04-14 04:25:00,
2013-04-13 23:31:00,30.4,26.1,30.02,WNW,284,0.0,0.0,84,0.00,,,0.00,0,Wunderground v.1.15,2013-04-14 04:31:00,
2013-04-13 23:39:00,30.1,26.1,30.02,WNW,284,0.0,0.0,85,0.00,,,0.00,0,Wunderground v.1.15,2013-04-14 04:39:00,
2013-04-13 23:44:00,30.0,26.0,30.02,WNW,284,0.0,0.0,85,0.00,,,0.00,0,Wunderground v.1.15,2013-04-14 04:44:00,
2013-04-13 23:50:00,30.2,26.5,30.02,WNW,284,0.0,0.0,86,0.00,,,0.00,0,Wunderground v.1.15,2013-04-14 04:50:00,
2013-04-13 23:56:00,30.6,26.9,30.02,WNW,284,0.0,0.0,86,0.00,,,0.00,0,Wunderground v.1.15,2013-04-14 04:56:00,